Location: Blackberry Knoll
(41.7051°N, 88.3877°W)
Time: 14:56:34
(UTC+00:00)

Daily predictions for brighter satellites

Satellite Brightness Start Highest point End
(mag) Time Altitude Azimuth Time Altitude Azimuth Time Altitude Azimuth
Cosmos 1626 Rocket 3.6 12:00:29 10° NNW 12:04:52 58° W 12:09:15 10° S
Cosmos 1300 3.8 12:01:48 10° SSE 12:05:27 47° E 12:09:07 10° NNE
Cosmos 1937 Rocket 4.0 12:01:34 12° NW 12:06:06 39° WSW 12:10:55 10° S
Cosmos 2228 4.2 12:02:12 10° SSE 12:06:14 44° E 12:10:17 10° NNE
Cosmos 1814 Rocket 3.9 12:01:52 10° SSW 12:06:56 60° WNW 12:12:01 10° NNE
USA 238 DEB 4.3 12:00:43 10° SSW 12:07:04 58° ESE 12:13:42 10° NE
USA 238 4.4 12:00:51 10° SSW 12:07:11 57° ESE 12:13:49 10° NE
Cosmos 372 Rocket 3.9 12:02:12 10° NNW 12:07:28 76° WSW 12:12:40 10° SSE
SL-19 R/B 4.2 12:04:18 10° NNE 12:08:20 82° ESE 12:11:47 10° SSW
Envisat 3.0 12:06:05 10° N 12:11:05 59° WNW 12:16:03 10° SSW
GEOS 3 Rocket 4.1 12:06:06 10° SSE 12:11:10 44° WSW 12:16:02 12° NW
Cosmos 1455 Rocket 4.3 12:08:23 10° WSW 12:11:30 19° WNW 12:14:39 10° NNW
Cosmos 2195 Rocket 4.5 12:06:29 10° N 12:12:47 85° W 12:18:59 10° S
ERS-2 3.5 12:12:19 10° SW 12:15:00 19° W 12:16:23 16° WNW
NOAA 6 4.0 12:12:03 10° N 12:17:15 73° WNW 12:22:24 10° SSW
Cosmos 1689 Rocket 3.4 12:15:40 10° SSW 12:17:58 21° W 12:19:12 16° WNW
ATLAS CENTAUR R/B 1.1 12:14:58 10° SSW 12:18:41 84° ESE 12:22:21 10° NE
H-2A R/B 2.7 12:15:10 10° NNE 12:19:41 89° W 12:24:11 10° SSW
Cosmos 1953 3.4 12:17:05 10° SW 12:20:14 22° WNW 12:23:23 10° NNW
Cosmos 2297 4.3 12:15:25 10° NNW 12:21:07 60° ENE 12:26:47 10° SE
BREEZE M DEB (TANK) 3.1 12:20:56 13° WSW 12:21:53 17° SW 12:23:30 10° S
COSMOS 2428 4.2 12:20:32 13° WNW 12:23:05 17° NW 12:26:40 10° N
Cosmos 1908 4.0 12:20:30 10° SW 12:23:49 28° WNW 12:27:10 10° NNW
Cosmos 44 Rocket 4.1 12:22:00 10° NW 12:26:40 36° WSW 12:31:21 10° S
Cosmos 1428 Rocket 4.5 12:20:43 10° N 12:27:01 80° W 12:33:14 10° S
Cosmos 1758 Rocket 3.6 12:22:42 10° N 12:27:13 84° W 12:31:41 10° S
Cosmos 1980 4.4 12:26:06 10° WSW 12:31:03 31° NW 12:36:02 10° N
NOAA 11 4.4 12:25:42 10° NNE 12:31:12 80° ESE 12:36:38 10° S
Okean O Rocket 1.6 12:28:49 10° NNE 12:33:12 87° ESE 12:37:32 10° SSW
USA 307 3.0 12:31:03 10° SW 12:35:16 82° SE 12:39:31 10° NE
Cosmos 1092 Rocket 4.2 12:32:24 10° NNW 12:38:16 48° W 12:44:09 10° SSW
MOS 1-B 4.4 12:33:47 10° N 12:39:27 59° WNW 12:45:06 10° SSW
CZ-2C R/B 2.8 12:36:06 10° WSW 12:39:40 30° S 12:43:03 10° ESE
Cosmos 1315 Rocket 2.7 12:36:21 10° SSW 12:40:15 79° W 12:44:11 10° N
BREEZE-M (TANK) 1.6 12:40:07 10° WNW 12:42:02 47° SSW 12:44:16 10° SE
Cosmos 2292 Rocket 3.8 12:39:31 10° N 12:42:23 45° E 12:45:26 10° SSE
USA 308 2.9 12:39:46 10° SW 12:44:00 86° NW 12:48:14 10° NE
Cosmos 1726 Rocket 3.6 12:39:58 10° S 12:44:16 85° E 12:48:36 10° N
USA 305 2.9 12:40:13 10° SW 12:44:28 81° NW 12:48:43 10° NE
Cosmos 1602 Rocket 4.5 12:41:17 10° NNW 12:45:06 29° W 12:48:56 10° SSW
AQUARIUS 4.3 12:42:10 10° N 12:46:35 55° WNW 12:50:57 10° SSW
Cosmos 2279 Rocket 4.0 12:41:00 10° S 12:47:14 82° W 12:53:33 10° N
Envisat 4.4 23:20:57 10° S 23:25:46 44° W 23:30:38 10° NNW
Cosmos 1603 4.1 23:20:20 10° NNW 23:26:02 72° WSW 23:31:43 10° SSE
Lacrosse 5 2.8 23:21:47 10° NNW 23:26:12 29° NNE 23:30:38 10° E
RESURS DK-1 4.5 23:23:32 10° WSW 23:26:54 24° NW 23:30:17 10° N
ATLAS 5 CENTAUR R/B 2.9 23:23:50 10° WSW 23:27:27 32° NW 23:31:29 10° NNE
Okean-O 4.1 23:26:20 10° ESE 23:29:11 17° ENE 23:32:02 10° NNE
Okean O Rocket 1.6 23:25:05 10° SSE 23:29:30 78° ENE 23:33:57 10° N
Cosmos 1455 3.7 23:27:35 10° NNE 23:30:10 17° ENE 23:32:44 10° ESE
ATLAS 3B R/B 3.7 23:26:07 10° NW 23:32:55 54° WSW 23:39:58 10° SSE
Cosmos 1300 2.9 23:31:32 10° N 23:35:21 75° W 23:39:09 10° S
Aureole 3 4.4 23:33:57 10° NNE 23:35:56 15° ENE 23:37:47 10° ESE
BREEZE-M DEB (TANK) 3.4 23:33:15 10° W 23:35:58 37° SSW 23:39:19 10° SE
FengYun 1-2 T 4.3 23:35:09 10° SSE 23:40:42 89° WSW 23:46:21 10° NNW
Cosmos 2279 Rocket 4.0 23:36:13 10° N 23:42:31 83° E 23:48:46 10° S
ERS-2 3.2 23:39:52 10° NE 23:42:56 25° E 23:45:59 10° SSE
CZ-4B R/B 1.5 23:39:47 10° NNE 23:43:05 51° E 23:46:17 10° S
Cosmos 1606 Rocket 3.7 23:39:05 10° N 23:43:30 82° W 23:47:55 10° S
YAOGAN 1 3.7 23:40:13 10° ESE 23:43:31 22° ENE 23:46:49 10° NNE
Cosmos 1892 Rocket 3.5 23:39:39 10° S 23:43:58 72° E 23:48:17 10° NNE
H-2A R/B 2.7 23:39:49 10° N 23:44:12 60° WNW 23:48:27 10° SSW
Cosmos 2228 3.6 23:45:38 10° NNW 23:49:51 61° W 23:54:05 10° S
SMAP 4.3 23:46:07 10° S 23:50:34 47° W 23:55:04 10° NNW
Cosmos 2263 Rocket 3.8 23:45:50 10° WSW 23:50:56 33° WNW 23:56:02 10° N
